Regional Weather Roundup
Issued by NWS Upton, NY

Current Version | Previous Version | Text Only | Print | Product List | Glossary On
Versions: 1 2 3 4 5 6 7 8 9 10 11 12 13 14 15 16 17 18 19 20 21 22 23 24 25 26 27 28 29 30 31 32 33 34 35 36 37 38 39 40 41 42 43 44 45 46 47 48 49 50
000 ASUS41 KOKX 090004 RWROKX REGIONAL WEATHER ROUNDUP NATIONAL WEATHER SERVICE NEW YORK NY 700 PM EST MON FEB 08 2016 NOTE: "FAIR" INDICATES FEW OR NO CLOUDS BELOW 12,000 FEET WITH NO SIGNIFICANT WEATHER AND/OR OBSTRUCTIONS TO VISIBILITY. NYZ071-072-176-178-NJZ106-104-090100- NEW YORK CITY METRO AREA CITY SKY/WX TMP DP RH WIND PRES REMARKS CENTRAL PARK CLOUDY 31 22 69 NE9G16 29.80R WCI 23 LAGUARDIA APRT FLURRIES 31 23 72 N9 29.79R WCI 23 KENNEDY INTL FLURRIES 30 24 78 NE14 29.80R WCI 19 NEWARK/LIBERTY FLURRIES 33 24 69 NE9 29.79R WCI 25 BRNX BOT. GARD N/A 30 23 74 E3 29.78S TETERBORO FLURRIES 31 22 69 NE8 29.78R WCI 23 $$ NYZ177-179-078>081-090100- LONG ISLAND NEW YORK CITY SKY/WX TMP DP RH WIND PRES REMARKS FARMINGDALE CLOUDY 29 23 78 N8 29.80R WCI 21 ISLIP FLURRIES 27 22 81 N9 29.78R WCI 18 SHIRLEY LGT SNOW 26 22 84 N6 29.80R FOG WCI 19 RIVERHEAD N/A 27 21 80 E3 29.76R WESTHAMPTON N/A N/A N/A N/A MISG 29.78R EAST HAMPTON CLOUDY 25 21 87 N10 29.76R WCI 15 MONTAUK POINT N/A 25 21 85 N15G22 29.77R WCI 13 $$ NYZ052-065-067-090100- HUDSON VALLEY CITY SKY/WX TMP DP RH WIND PRES REMARKS WHITE PLAINS FLURRIES 27 20 75 N6 29.77R WCI 20 NEWBURGH CLOUDY 27 23 86 E7 29.78R WCI 19 MONTGOMERY FLURRIES 29 21 72 E7 29.77R WCI 22 POUGHKEEPSIE LGT SNOW 29 22 75 N3 29.79R ALBANY LGT SNOW 25 20 81 NE3 29.81S $$ NJZ001-105-106-008-010-013-015-019>022-104-090100- NEW JERSEY CITY SKY/WX TMP DP RH WIND PRES REMARKS NEWARK/LIBERTY FLURRIES 33 24 69 NE9 29.79R WCI 25 TETERBORO FLURRIES 31 22 69 NE8 29.78R WCI 23 CALDWELL FLURRIES 33 21 61 E8 29.78R WCI 26 MORRISTOWN CLOUDY 34 23 64 E7 29.78R WCI 28 SOMERVILLE CLOUDY 35 23 61 SE3 29.75R SUSSEX CLOUDY 31 18 58 NE8 29.76R WCI 23 ANDOVER N/A 31 15 52 VRB3 29.75R TRENTON CLOUDY 35 23 61 SE7 29.75R WCI 29 MILLVILLE CLOUDY 36 29 75 SE9 29.76R WCI 29 ATLANTIC CITY CLOUDY 34 27 75 E9 29.77R WCI 27 WRIGHTSTOWN CLOUDY 34 29 81 E5 29.74R WCI 30 TOMS RIVER CLOUDY 32 23 69 E3 29.78R BELMAR CLOUDY 30 21 69 NE5 29.77S WCI 25 $$ PAZ047>061-062-071-090100- EASTERN PENNSYLVANIA CITY SKY/WX TMP DP RH WIND PRES REMARKS PHILADELPHIA CLOUDY 38 24 57 E7 29.76R WCI 33 ALLENTOWN CLOUDY 38 19 46 E10 29.72S WCI 31 SCRANTON CLOUDY 36 17 46 SE12G18 29.67R WCI 28 $$ CTZ002-004>006-009-010-012-RIZ004-006-007-MAZ004-011-015-090100- SOUTHERN NEW ENGLAND IN CT CITY SKY/WX TMP DP RH WIND PRES REMARKS BRADLEY INTL LGT SNOW 23 19 85 N13 29.78S FOG WCI 11 HARTFORD LGT SNOW 24 20 84 N13 29.79S FOG WCI 12 DANBURY FLURRIES 26 19 74 CALM 29.79R WTRBRY/OXFORD LGT SNOW 25 12 58 NE8 29.74R FOG WCI 16 BRIDGEPORT FLURRIES 28 20 71 N7 29.80R WCI 21 MERIDEN LGT SNOW 25 20 81 N7 29.77S WCI 17 NEW HAVEN LGT SNOW 25 20 81 N14 29.77R WCI 13 CHESTER LGT SNOW 25 21 86 NE9G16 29.75R WCI 15 GROTON LGT SNOW 24 22 91 N10 29.77R FOG WCI 14 WILLIMANTIC LGT SNOW 24 19 81 N6 29.78R WCI 17 IN RI CITY SKY/WX TMP DP RH WIND PRES REMARKS PROVIDENCE LGT SNOW 21 17 84 N14 29.77R FOG WCI 8 BLOCK ISLAND CLOUDY 25 19 80 N20G28 29.72S WCI 11 WESTERLY LGT SNOW 23 19 85 N12 29.77R FOG WCI 12 IN MA CITY SKY/WX TMP DP RH WIND PRES REMARKS BOSTON LGT SNOW 20 16 84 N14G23 29.79R FOG WCI 7 WORCESTER LGT SNOW 18 14 84 N12 29.73R VSB 1 WCI 5 WESTFIELD LGT SNOW 22 18 85 N7 29.78F FOG WCI 13 PROVINCETOWN LGT SNOW 30 28 92 N28G37 29.69R FOG WCI 15 NANTUCKET LGT SNOW 34 31 88 N20G29 29.63R VSB 1 WCI 23 $$ ANZ330-335-338-340-345-350-353-355-090100- COASTAL MARINE OBSERVATIONS STATION/POSITION TIME SKY/WX TEMP WIND PRES VSBY WAVE AIR SEA DIR/SP/G HT/PER (UTC) (F) (DEG/KT/KT) (MB) (MI) (FT/S) NY HARB ENTRANCE 2250 30 44 20/ 12/ 16 1007.5 10/11 4S FIRE IS NOT AVBL 20S FIRE ISLAND 2250 31 45 30/ 17/ 21 1007.4 12/14 GREAT SOUTH BAY NOT AVBL 23SW MTP 2350 29 46 360/ 23/ 27 1006.1 12/12 HUDSON CANYON 2250 34 50 1006.3 15/13 KINGS POINT 2300 29 39 100/ 6/ 7 1007.8 EXECUTION ROCKS NOT AVBL CENTRAL LI SOUND 2330 27 40/ 17/ 21 N/A 2/ 3 EASTERN LI SOUND 2300 26 42 10/ 14/ 19 N/A ROBBINS REEF 2300 32 20/ 10/ 12 1007.2 $$ >>>>>>>>>>>>>>>>>>>>>>>>>>>> KEY <<<<<<<<<<<<<<<<<<<<<<<<<<< > < > SKY/WX - SKY CONDITION/PRESENT WEATHER < > TMP - TEMPERATURE IN FAHRENHEIT < > DP - DEWPOINT IN FAHRENHEIT < > RH - RELATIVE HUMIDITY IN PERCENT < > WIND - DIRECTION AND SPEED IN MPH < > PRES - MEAN SEA LEVEL PRESSURE IN INCHES OF HG < > WCI - WIND CHILL INDEX < > VSB - VISIBILITY IN MILES < > HX - HEAT INDEX < > TC - TEMPERATURE IN CELSIUS < > VRB - VARIABLE WIND DIRECTION < > < >>>>>>>>>>>>>>>>>>>>>>>>>>>> KEY <<<<<<<<<<<<<<<<<<<<<<<<<<<

USA.gov is the U.S. government's official web portal to all federal, state and local government web resources and services.